Weather History for KDDC - September, 2013

Change the Weather History Date:

Tuesday, September 3, 2013

  Actual Average Record
Temperature  
Mean Temperature 76 °F -  
Max Temperature 91 °F 87 °F 106 °F (1947)
Min Temperature 62 °F 61 °F 39 °F (1891)
Cooling Degree Days 12    
Growing Degree Days 26 (Base 50)    
Moisture  
Dew Point 53 °F    
Average Humidity 48    
Maximum Humidity 70    
Minimum Humidity 21    
Precipitation  
Precipitation 0.00 in - - ()
Sea Level Pressure  
Sea Level Pressure 30.01 in    
Wind  
Wind Speed 10 mph (SSE)    
Max Wind Speed 16 mph    
Max Gust Speed 23 mph    
Visibility 10 miles    
Events      
Averages and records for this station are not official NWS values.
T = Trace of Precipitation, MM = Missing Value Source: NWS Daily Summary

Daily Weather History Graph

Daily Weather History Graph

Search for Another Location

Airport or City:

Trip Planner

Search our weather history database for the weather conditions in past years. The results will help you decide how hot, cold, wet, or windy it might be!

Date:

Astronomy

Sep. 03, 2013 Rise Set
Actual Time 7:11 AM CDT 8:05 PM CDT
Civil Twilight 6:45 AM CDT 8:32 PM CDT
Nautical Twilight 6:13 AM CDT 9:03 PM CDT
Astronomical Twilight 5:40 AM CDT 9:36 PM CDT
Moon 5:28 AM CDT (9/3) 6:53 PM CDT (9/3)
Length of Visible Light 13h 47m
Length of Day
12h 53m
Waning Crescent, 3% of the Moon is Illuminated
Sep 3
Waning Crescent
Sep 5
New
Sep 12
First Quarter
Sep 19
Full
Sep 26
Last Quarter

Hourly Weather History & Observations

Time (CDT) Temp. Heat Index Dew Point Humidity Pressure Visibility Wind Dir Wind Speed Gust Speed Precip Events Conditions
12:52 AM 66.0 °F - 53.1 °F 63% 30.02 in 10.0 mi SE 8.1 mph - N/A   Clear
1:52 AM 64.0 °F - 53.1 °F 67% 30.02 in 10.0 mi SSE 8.1 mph - N/A   Clear
2:52 AM 64.0 °F - 53.1 °F 67% 30.01 in 10.0 mi SSE 8.1 mph - N/A   Clear
3:52 AM 64.0 °F - 53.1 °F 67% 30.02 in 10.0 mi South 8.1 mph - N/A   Clear
4:52 AM 62.1 °F - 52.0 °F 70% 30.02 in 10.0 mi South 6.9 mph - N/A   Partly Cloudy
5:52 AM 63.0 °F - 53.1 °F 70% 30.03 in 10.0 mi South 8.1 mph - N/A   Partly Cloudy
6:52 AM 64.0 °F - 54.0 °F 70% 30.03 in 10.0 mi South 10.4 mph - N/A   Clear
7:52 AM 64.9 °F - 55.0 °F 70% 30.06 in 10.0 mi South 9.2 mph - N/A   Clear
8:52 AM 71.1 °F - 55.9 °F 59% 30.07 in 7.0 mi South 12.7 mph - N/A   Clear
9:52 AM 73.9 °F - 55.9 °F 53% 30.07 in 10.0 mi South 16.1 mph - N/A   Partly Cloudy
10:52 AM 78.1 °F - 55.9 °F 46% 30.07 in 10.0 mi SSW 13.8 mph - N/A   Clear
11:52 AM 81.0 °F 80.7 °F 55.0 °F 41% 30.06 in 10.0 mi SSW 10.4 mph - N/A   Clear
12:52 PM 86.0 °F 84.5 °F 55.0 °F 35% 30.04 in 10.0 mi South 12.7 mph 18.4 mph N/A   Clear
1:52 PM 89.1 °F - 50.0 °F 26% 30.02 in 10.0 mi South 15.0 mph 19.6 mph N/A   Clear
2:52 PM 90.0 °F - 50.0 °F 25% 30.00 in 10.0 mi South 12.7 mph 20.7 mph N/A   Clear
3:52 PM 90.0 °F - 51.1 °F 26% 29.98 in 10.0 mi South 16.1 mph 23.0 mph N/A   Clear
4:52 PM 90.0 °F - 52.0 °F 27% 29.96 in 10.0 mi SSE 15.0 mph - N/A   Clear
5:52 PM 88.0 °F - 52.0 °F 29% 29.96 in 10.0 mi SE 13.8 mph - N/A   Clear
6:52 PM 86.0 °F - 52.0 °F 31% 29.96 in 10.0 mi SE 12.7 mph 20.7 mph N/A   Clear
7:52 PM 82.0 °F 81.2 °F 53.1 °F 37% 29.96 in 7.0 mi SSE 9.2 mph - N/A   Clear
8:52 PM 75.0 °F - 54.0 °F 48% 29.97 in 10.0 mi SE 8.1 mph - N/A   Clear
9:52 PM 73.0 °F - 54.0 °F 51% 29.99 in 10.0 mi SE 9.2 mph - N/A   Clear
10:52 PM 72.0 °F - 53.1 °F 51% 29.99 in 10.0 mi SSE 11.5 mph - N/A   Clear
11:52 PM 71.1 °F - 54.0 °F 55% 30.00 in 10.0 mi SSE 13.8 mph - N/A   Clear